Regional Weather Roundup
Issued by NWS Goodland, KS

Home | Current Version | Previous Version | Text Only | Print | Product List | Glossary On
Versions: 1 2 3 4 5 6 7 8 9 10 11 12 13 14 15 16 17 18 19 20 21 22 23 24 25 26 27 28 29 30 31 32 33 34 35 36 37 38 39 40 41 42 43 44 45 46 47 48 49 50
000
ASUS43 KGLD 211408
RWRGLD

GOODLAND FORECAST AREA HOURLY WEATHER ROUNDUP
NATIONAL WEATHER SERVICE GOODLAND KS
700 AM MST TUE FEB 21 2017

...OFFICIAL OBSERVATIONS...

CITY           SKY/WX    TMP DP  RH WIND       PRES   REMARKS
GOODLAND KS    CLOUDY    37  15  40 SW9       30.01R
HILL CITY KS   CLOUDY    32  24  72 W3        30.03S
IMPERIAL NEB   CLEAR     35  18  49 SW10      29.98R
MCCOOK NEB     CLOUDY    29  22  75 SW7       30.00R
AKRON CO       CLOUDY    43  17  35 W14       30.02R
BURLINGTON CO  CLOUDY    40  18  41 W9        30.02R
LIMON CO       CLOUDY    32  17  54 NE7       30.08R
$$

...UNOFFICIAL OBSERVATIONS...

CITY           SKY/WX    TMP DP  RH WIND       PRES   REMARKS
LENORA KS        N/A     38  32  79 SW8         N/A
NORTON KS      CLEAR     30  21  69 SW9       30.00S
SHARON SPRINGS   N/A     36  18  47 SW8         N/A
TRIBUNE KS     CLOUDY    34  16  47 SW9       30.05R
TRENTON NEB      N/A     36  32  85 CALM        N/A
KIT CARSON CO    N/A     29  17  60 CALM        N/A
YUMA CO        FAIR      32  18  55 W8        30.01R
$$



USA.gov is the U.S. government's official web portal to all federal, state and local government web resources and services.